Vorticity
nan nan nan nan nan nan nan nan nan nan nan nan nan nan nan nan nan nan nan nan nan nan nan nan nan nan nan nan nan nan nan nan nan nan nan nan nan nan nan nan nan nan nan nan nan nan nan
nan 6 6 6 6 6 6 7 7 7 7 7 7 7 8 8 8 8 9 10 11 10 12 14 13 10 6 1 15 12 17 13 5 3 6 4 5 4 3 13 3 5 7 4 9 8 nan
nan 6 6 6 6 6 6 7 7 7 7 8 7 7 7 7 8 8 9 9 12 16 25 18 12 5 6 6 -2 13 13 5 12 5 5 5 6 8 6 11 9 3 13 17 6 -0 nan
nan 6 6 6 7 7 6 6 7 7 7 6 7 7 7 7 7 9 8 9 12 27 28 18 13 6 1 10 8 3 6 11 16 7 4 12 6 3 4 3 21 21 14 12 6 6 nan
nan 7 6 7 7 7 7 6 7 6 6 7 7 7 6 6 8 10 9 10 18 25 11 10 7 6 6 13 15 9 11 11 8 8 9 6 7 7 5 9 7 14 13 15 15 5 nan
nan 7 6 7 8 8 7 6 6 7 7 7 8 8 7 8 9 8 16 24 26 12 8 2 -7 2 0 2 0 18 17 8 7 8 9 8 4 7 3 9 8 4 9 8 12 14 nan
nan 6 6 7 8 8 6 6 6 7 8 8 8 8 8 8 8 14 25 21 13 8 9 7 -0 -5 -7 1 8 11 17 14 5 4 10 11 7 8 8 -3 4 7 6 1 7 10 nan
nan 6 7 7 8 7 6 6 8 8 9 9 9 8 8 7 8 29 20 5 7 6 6 13 21 14 15 9 5 2 20 15 11 5 -1 9 12 4 9 9 6 3 4 4 7 12 nan
nan 7 7 7 7 7 7 8 8 8 8 8 8 8 8 10 29 26 9 2 5 13 14 11 21 16 21 14 8 8 8 11 11 14 9 -3 3 15 4 4 8 7 4 6 4 8 nan
nan 8 7 7 7 7 8 8 8 7 7 7 8 9 6 23 28 8 8 7 8 12 8 13 9 8 11 18 8 16 9 8 8 9 11 10 12 5 4 6 8 5 8 5 1 10 nan
nan 7 7 7 7 7 7 8 8 7 7 8 8 7 16 30 12 7 7 1 15 15 5 10 12 6 8 12 2 6 24 24 10 7 9 15 14 5 5 8 2 7 9 11 9 7 nan
nan 7 7 7 7 8 8 8 7 7 7 7 7 8 25 25 12 5 5 12 18 10 8 4 2 1 15 7 10 12 13 22 31 14 3 9 12 13 6 8 6 7 12 8 13 9 nan
nan 8 8 8 7 7 8 7 6 7 7 7 8 15 28 16 4 8 11 18 14 2 7 7 6 11 7 5 11 8 9 15 22 29 20 9 7 8 15 11 10 5 6 11 10 10 nan
nan 8 8 8 8 8 8 7 7 7 6 7 13 36 28 7 4 9 10 11 3 6 13 5 8 10 1 13 9 5 12 6 7 22 34 22 12 17 2 10 10 8 1 11 13 8 nan
nan 8 8 8 8 8 8 8 8 6 6 10 29 30 11 11 12 8 7 8 4 7 6 11 13 11 4 9 9 8 14 9 -4 4 19 27 20 14 11 7 4 9 12 1 7 7 nan
nan 8 8 8 8 8 8 8 8 6 8 21 31 14 9 9 16 10 10 8 7 7 10 13 9 7 7 8 7 9 11 5 -1 -2 15 15 21 17 18 11 7 7 6 6 7 11 nan
nan 8 8 8 8 8 8 8 8 8 10 28 22 12 3 10 20 9 10 7 5 7 13 11 8 8 7 7 9 7 5 2 5 9 12 18 13 11 22 24 12 1 6 4 7 9 nan
nan 8 8 8 8 8 8 9 9 9 20 23 9 8 7 13 14 7 4 7 9 9 9 9 9 11 8 8 11 8 10 7 2 13 15 18 14 16 10 8 22 15 6 11 7 7 nan
nan 8 8 9 9 8 9 9 10 11 17 16 12 9 7 12 8 8 7 10 8 9 9 8 9 11 9 8 9 9 7 9 3 5 11 13 12 8 12 12 13 19 8 5 8 14 nan
nan 8 9 9 9 9 10 11 10 9 13 19 10 9 11 8 8 5 10 8 5 14 15 9 7 5 8 12 11 6 8 4 4 5 8 13 14 6 -3 -8 4 12 12 7 5 4 nan
nan 9 9 9 10 10 10 11 10 9 17 17 10 12 8 3 5 8 13 8 7 12 11 10 14 9 8 6 8 8 5 5 11 12 11 11 11 6 3 9 12 10 14 17 10 6 nan
nan 8 8 9 10 10 10 12 11 9 20 15 8 8 12 11 7 11 12 7 5 6 8 9 2 8 20 13 7 5 5 7 8 8 10 10 4 9 24 32 24 18 11 18 22 7 nan
nan 8 9 9 9 10 11 12 11 12 14 10 8 11 11 9 9 10 4 -1 5 11 11 2 4 19 15 11 15 8 5 5 9 9 8 6 3 15 15 16 20 6 17 32 27 20 nan
nan 8 9 9 10 10 11 12 13 13 8 10 10 10 9 10 11 6 1 3 9 13 9 7 13 16 5 10 13 14 18 19 11 11 5 4 6 6 8 13 16 -2 -1 12 9 11 nan
nan 9 9 10 10 11 12 12 12 14 12 11 10 11 10 10 10 7 10 9 11 15 13 12 13 9 13 16 12 12 16 17 21 18 10 3 1 9 12 13 0 -11 0 13 12 -0 nan
nan 10 10 10 11 12 12 12 13 14 14 12 11 11 9 11 12 10 11 12 13 14 13 9 11 13 18 17 12 9 11 9 16 22 19 7 5 4 6 13 4 -6 5 31 20 -9 nan
nan 11 11 11 12 12 13 13 14 14 15 12 12 11 9 10 11 12 10 11 10 10 11 8 9 16 11 13 11 13 9 10 11 15 16 11 15 12 8 11 -3 -6 25 32 8 4 nan
nan 12 12 13 13 13 13 14 13 14 16 14 14 12 7 8 9 10 7 7 10 6 7 9 10 12 10 11 12 10 10 12 7 10 14 12 13 11 14 12 0 3 20 11 2 8 nan
nan nan nan nan nan nan nan nan nan nan nan nan nan nan nan nan nan nan nan nan nan nan nan nan nan nan nan nan nan nan nan nan nan nan nan nan nan nan nan nan nan nan nan nan nan nan nan
CAPE
5 4 3 2 1 2 3 3 2 2 1 0 1 3 2 2 0 0 0 0 0 0 0 0 1 0 0 0 0 0 0 0 0 0 0 0 0 0 0 0 0 9 11 28 22 0 1
5 6 4 4 3 4 3 3 2 2 2 2 4 2 1 0 0 0 0 0 0 0 0 0 2 0 0 0 0 0 0 0 0 0 0 0 0 0 0 0 0 0 0 21 1 0 1
6 7 6 3 1 1 1 1 1 0 0 0 1 1 0 0 0 0 0 0 0 0 0 0 6 0 0 0 0 0 0 0 0 0 0 0 0 0 0 0 0 0 0 26 0 4 10
4 5 3 2 0 0 1 0 0 1 2 1 0 0 0 0 0 0 0 0 0 0 0 0 3 1 0 0 0 0 0 0 0 0 0 0 0 0 0 0 0 0 0 6 6 5 37
4 5 5 2 3 4 4 2 2 3 2 1 2 0 0 0 0 0 0 0 0 0 0 0 0 0 0 0 0 0 0 0 0 0 0 0 0 0 0 0 0 0 0 0 12 62 43
6 6 3 2 3 5 2 1 2 3 4 3 2 1 0 0 0 0 0 0 0 0 0 0 0 0 0 0 0 0 0 0 0 0 0 0 0 0 0 0 0 0 0 0 0 0 34
4 3 2 1 1 2 1 2 3 6 4 3 1 0 0 0 0 0 0 0 0 0 0 0 0 0 0 0 0 0 0 0 0 0 0 0 0 0 0 0 0 0 0 0 0 0 0
3 1 1 1 0 2 2 1 2 4 5 2 0 0 0 0 0 0 0 0 0 0 0 0 0 0 0 0 0 0 0 0 0 0 0 0 0 0 0 0 0 0 0 0 0 0 0
2 2 1 2 2 4 4 3 3 2 0 0 0 0 0 0 0 0 0 0 0 0 0 0 0 0 0 0 0 0 0 0 0 0 0 0 0 0 0 0 0 0 0 0 0 0 0
2 5 3 2 2 5 5 4 3 0 0 0 0 0 0 0 0 0 0 0 0 0 0 0 0 0 0 0 0 0 0 0 0 0 0 0 0 0 0 0 0 0 0 0 0 0 0
7 5 3 2 3 3 2 2 1 0 0 0 0 0 0 0 0 0 0 0 0 0 0 0 0 0 0 0 0 0 0 0 0 0 0 0 0 0 0 0 0 0 0 0 0 0 0
7 5 3 3 3 1 2 1 0 0 0 0 0 0 0 0 0 0 0 0 0 0 0 0 0 0 0 0 0 0 0 0 0 0 0 0 0 0 0 0 0 0 0 0 0 0 0
3 2 2 3 2 2 1 1 0 0 0 0 0 0 0 0 0 0 0 0 0 0 0 0 0 0 0 0 0 0 0 0 0 0 0 0 0 0 0 0 0 0 0 0 0 0 0
1 5 4 2 2 1 1 3 0 0 0 0 0 0 0 0 0 0 0 0 0 0 0 0 0 0 0 0 0 0 0 0 0 0 0 0 0 0 0 0 0 0 0 0 0 0 0
1 3 3 2 1 0 1 4 0 0 0 0 0 0 0 0 0 0 0 0 0 0 0 0 0 0 0 0 0 0 0 0 0 0 0 0 0 0 0 0 0 0 0 0 0 0 0
3 2 3 5 1 0 0 4 1 0 0 0 0 0 0 0 0 0 0 0 0 0 0 0 0 0 0 0 0 0 0 0 0 0 0 0 0 0 0 0 0 0 0 0 0 0 0
2 1 3 6 3 0 1 4 2 0 0 0 0 0 0 0 0 0 0 0 0 0 0 0 0 0 0 0 0 0 0 0 0 0 0 0 0 0 0 0 0 0 0 0 0 0 0
0 1 3 7 4 2 3 7 2 0 0 0 0 0 0 0 0 0 0 0 0 0 0 0 0 0 0 0 0 0 0 0 0 0 0 0 3 0 0 0 0 0 0 0 0 0 0
2 2 7 6 6 6 6 5 2 0 0 1 0 0 0 0 0 0 0 0 0 0 0 0 0 0 0 0 0 0 0 0 1 0 3 15 6 0 0 0 0 0 0 0 0 0 0
4 1 3 5 7 9 10 8 4 0 0 0 0 0 0 0 0 0 0 0 0 0 0 0 0 0 0 0 0 0 0 1 10 3 21 18 0 0 0 0 0 0 0 0 0 0 0
0 0 0 1 3 5 14 13 7 0 0 0 0 0 0 0 0 0 0 0 0 0 0 0 0 0 2 0 0 0 0 0 4 10 1 7 0 0 0 0 0 0 0 0 0 0 0
0 0 0 0 2 5 19 22 20 4 0 0 0 0 0 0 0 0 0 0 7 0 0 1 19 32 3 0 1 0 0 0 17 0 0 2 2 0 0 0 0 0 0 0 0 0 0
0 0 0 1 5 8 15 23 18 9 5 0 0 0 0 9 5 8 0 0 1 8 2 13 6 1 0 12 6 0 0 0 2 7 12 0 0 0 0 0 0 0 0 0 0 0 0
0 0 3 3 9 5 3 9 19 17 17 16 0 2 3 2 8 15 8 11 17 15 26 0 9 5 33 5 0 0 0 0 0 0 0 0 0 0 0 0 0 0 0 0 0 0 0
1 3 4 6 9 3 6 13 15 28 31 14 2 0 1 2 6 10 11 19 7 4 3 3 14 28 0 0 0 0 0 0 0 0 0 0 0 0 0 0 0 0 0 0 0 0 0
4 10 8 12 5 10 5 15 22 38 27 21 0 0 0 1 1 4 16 10 10 11 4 1 1 0 0 0 0 0 2 1 6 1 0 0 0 0 0 0 0 0 0 0 0 0 0
5 16 14 14 15 15 15 20 28 31 29 22 13 0 0 1 0 0 5 7 11 13 11 10 1 0 0 0 15 15 12 13 8 7 0 0 0 0 0 0 1 0 0 0 0 0 0
13 18 13 13 15 15 16 19 27 30 31 28 5 0 0 0 0 0 2 14 9 10 9 10 0 0 0 0 12 19 12 15 4 9 4 3 4 6 0 0 3 0 0 0 0 0 0
14 11 10 12 11 12 11 18 23 24 27 23 5 0 1 0 0 0 0 0 2 0 6 27 8 11 1 0 0 0 7 15 0 20 14 7 7 8 7 3 3 0 26 0 0 0 0